Cloud_Cover
76 61 70 97 99 51 99 98 99 17 2 0 3 67 21 40 3 0 4 4 5 5 4 5 5 14 26 40 91 100 100 38 100 100 100 99 51 5 5 2 0 0 0
59 47 98 86 100 98 39 70 34 73 57 5 0 61 100 100 58 4 2 2 5 5 5 10 5 5 7 99 93 100 100 98 92 100 100 100 99 5 5 2 0 0 0
88 88 85 82 100 100 98 68 32 92 100 63 7 100 100 100 100 76 90 50 5 4 5 5 5 5 5 5 72 100 100 100 10 100 100 100 100 7 5 0 0 0 0
78 73 100 34 84 100 100 98 97 51 100 100 95 66 100 100 100 100 100 100 35 5 3 5 4 5 5 6 94 100 100 68 76 100 100 100 100 38 5 1 0 0 2
57 58 100 45 88 96 98 100 52 98 100 100 100 100 100 100 89 100 100 100 100 100 12 5 5 4 5 5 23 89 100 47 71 100 100 100 100 92 5 3 23 0 6
82 47 92 98 96 100 96 100 100 76 100 100 100 100 100 66 64 100 100 100 100 100 86 63 6 5 5 5 5 34 87 86 97 100 100 100 100 100 20 89 84 25 92
96 87 80 24 98 100 99 100 100 90 100 100 100 100 100 56 76 16 99 100 100 100 100 67 53 13 5 5 47 67 17 83 96 100 100 100 100 100 45 100 100 100 34
90 51 97 93 35 100 96 100 100 100 99 100 100 100 100 95 62 38 42 92 100 100 100 100 96 55 13 5 5 20 14 58 96 100 100 100 100 100 100 16 59 100 100
56 56 80 10 48 88 100 100 100 100 100 100 100 100 100 100 100 89 95 84 100 100 93 100 100 74 63 54 24 14 5 45 55 100 100 100 100 100 100 83 5 42 24
11 50 60 98 88 100 100 100 100 100 100 100 100 100 100 100 100 100 100 100 100 100 100 100 100 100 100 25 97 72 9 61 72 100 100 100 100 100 100 100 13 5 6
100 24 60 89 100 100 100 100 100 100 100 100 100 100 100 100 100 100 100 100 100 100 100 100 100 100 100 100 11 100 66 62 96 99 100 100 100 100 100 100 85 19 5
86 90 92 100 100 100 100 100 100 99 100 100 100 100 100 100 100 100 100 100 100 100 100 100 100 100 100 100 82 98 100 10 81 99 100 100 100 100 100 100 100 54 14
61 84 86 100 68 74 100 100 100 100 100 100 100 100 100 100 100 100 100 100 100 100 100 100 100 100 100 100 100 40 100 94 42 83 80 100 100 100 100 100 100 100 53
56 75 100 89 80 98 100 100 100 100 100 100 100 100 100 100 100 100 100 100 100 100 100 100 100 100 100 100 100 100 99 99 63 17 55 97 100 100 100 100 100 100 97
45 100 58 52 100 100 100 100 100 100 100 100 100 100 100 100 100 100 100 100 100 100 100 100 100 100 100 83 94 100 100 63 100 96 34 97 100 100 100 100 100 100 100
100 100 100 100 100 100 100 100 100 100 100 100 100 100 90 68 100 100 100 100 100 100 100 100 100 100 100 91 87 100 99 100 54 100 84 96 100 100 100 100 100 100 100
100 100 100 100 100 100 100 100 100 100 100 100 97 17 7 44 100 100 100 100 100 100 100 100 100 100 100 95 95 100 100 98 90 100 71 100 90 100 100 100 100 100 100
93 79 87 100 100 100 100 100 100 100 100 100 100 83 7 12 100 100 100 100 100 100 100 100 100 100 100 100 100 100 100 100 99 100 54 84 90 100 100 100 100 100 100
45 21 25 92 100 100 100 100 96 97 92 100 100 100 43 80 100 100 100 100 100 100 100 100 100 100 100 100 100 100 100 100 100 100 27 65 100 100 100 100 100 100 100
81 93 100 100 100 100 100 100 100 100 100 100 100 100 88 100 100 98 72 100 100 100 100 100 100 100 100 100 100 100 100 100 100 100 96 57 100 100 100 100 100 100 100
52 100 100 100 100 100 100 100 100 100 100 100 100 100 100 100 100 100 100 99 100 100 100 99 100 100 100 100 100 100 100 100 100 100 100 100 100 100 72 100 100 100 100
91 87 94 98 100 96 100 99 100 100 100 100 100 100 100 100 100 100 100 100 99 100 100 100 100 100 100 100 100 100 100 100 100 100 5 75 100 100 80 100 100 100 100
82 77 100 100 100 100 100 100 100 100 100 100 78 100 100 100 100 100 100 100 100 100 100 100 100 100 100 100 100 100 100 100 100 100 25 100 100 100 100 100 100 100 100
70 88 100 100 100 100 100 100 100 100 100 100 100 100 100 100 100 100 100 100 100 100 100 100 100 100 100 100 100 100 100 100 100 98 5 91 100 100 100 100 100 100 100
80 92 100 100 100 100 100 100 100 100 100 100 100 100 100 100 100 100 100 100 100 100 100 100 100 100 100 100 100 100 100 100 100 52 81 100 100 100 100 100 100 100 100
80 100 100 100 100 100 100 100 100 100 100 100 100 100 100 100 100 100 100 100 100 100 100 100 100 100 100 100 100 100 100 100 100 100 100 100 100 100 100 100 100 100 100